Flag for Belgium Weather past 2 weeks in Brussels, Belgium

Now
38 °F

Chilly.


Feels Like: 35 °F
Forecast: 35 / 43 °F
Wind: 3 mph from Southwest

Location: Uccle

Current Time: Dec 25, 2014 at 7:39:57 AM

Latest Report: Dec 25, 2014 at 7:00 AM


Visibility: N/A

Pressure: 30.25 "Hg

Humidity: 87%

Dew point: 34 °F

Location of BrusselsLocation

Historic Weather in Brussels — Graph

°F

Brussels temperature yesterday

Maximum temperature yesterday: 49 °F (at 4:00 PM)
Minimum temperature yesterday: 40 °F (at 11:00 PM)
Average temperature yesterday: 46 °F

Past Weeks' High & Low Weather Summary

 TemperatureHumidityPressure
High54 °F (Dec 18, 7:00 PM)97% (Dec 14, 9:00 AM)30.47 "Hg (Dec 14, 9:00 AM)
Low34 °F (Dec 14, 9:00 AM)57% (Dec 10, 3:00 PM)29.41 "Hg (Dec 12, 1:00 PM)
Average44 °F87%30.01 "Hg
* Reported Dec 10 6:00 AM — Dec 25 6:00 AM, Brussels, Weather by CustomWeather, © 2014

Note: Actual official high and low records may vary slightly from our data, if they occured in-between our weather recording intervals... More about our weather records

Advertising

Brussels weather history for previous 24 hours

 ConditionsComfort  
Time TempWeatherWind HumidityBarometerVisibility
6:00 AM
Dec 25
38 °FChilly.2 mph86%30.25 "HgN/A
5:00 AM38 °FChilly.3 mph84%30.24 "HgN/A
4:00 AM38 °FChilly.2 mph83%30.24 "HgN/A
3:00 AM39 °FChilly.2 mph81%30.23 "HgN/A
2:00 AM39 °FChilly.3 mph82%30.22 "HgN/A
1:00 AM39 °FChilly.3 mph80%30.22 "HgN/A
12:00 AM39 °FChilly.3 mph79%30.21 "HgN/A
11:00 PM
Dec 24
40 °FQuite cool.3 mph78%30.20 "HgN/A
10:00 PM41 °FQuite cool.3 mph78%30.18 "HgN/A
9:00 PM44 °FQuite cool.5 mph80%30.16 "HgN/A
8:00 PM44 °FQuite cool.5 mph90%30.14 "HgN/A
7:00 PM44 °FQuite cool.3 mph93%30.11 "HgN/A
6:00 PM45 °FQuite cool.5 mph94%30.08 "HgN/A
5:00 PM45 °FQuite cool.5 mph94%30.06 "HgN/A
4:00 PM49 °FCool.5 mph94%30.02 "HgN/A
3:00 PM49 °FCool.7 mph94%30.01 "HgN/A
2:00 PM48 °FCool.8 mph93%30.01 "HgN/A
1:00 PM48 °FCool.8 mph91%30.01 "HgN/A
11:00 AM48 °FCool.9 mph86%30.03 "HgN/A
10:00 AM49 °FCool.9 mph83%30.03 "HgN/A
9:00 AM49 °FCool.9 mph79%30.03 "HgN/A
8:00 AM48 °FCool.9 mph78%30.02 "HgN/A
7:00 AM47 °FCool.8 mph79%30.02 "HgN/A
Weather by CustomWeather, © 2014

See weather overviewHow to use our weather pages